Weather History for Redwood Falls, MN

Change the Weather History Date:

Tuesday, July 23, 2013

  Actual Average Record
Temperature  
Mean Temperature 67 °F -  
Max Temperature 79 °F 83 °F 108 °F (1934)
Min Temperature 55 °F 61 °F 51 °F (1978)
Cooling Degree Days 2    
Growing Degree Days 17 (Base 50)    
Moisture  
Dew Point 55 °F    
Average Humidity 67    
Maximum Humidity 93    
Minimum Humidity 40    
Precipitation  
Precipitation 0.00 in - - ()
Sea Level Pressure  
Sea Level Pressure 29.98 in    
Wind  
Wind Speed 5 mph (NNW)    
Max Wind Speed 8 mph    
Max Gust Speed -    
Visibility 10 miles    
Events      
Averages and records for this station are not official NWS values.
T = Trace of Precipitation, MM = Missing Value Source: NWS Daily Summary

Daily Weather History Graph

Daily Weather History Graph

Search for Another Location

Airport:

Trip Planner

Search our weather history database for the weather conditions in past years. The results will help you decide how hot, cold, wet, or windy it might be!

Date:

Astronomy

Jul. 23, 2013 Rise Set
Actual Time 5:57 AM CDT 8:55 PM CDT
Civil Twilight 5:23 AM CDT 9:29 PM CDT
Nautical Twilight 4:38 AM CDT 10:13 PM CDT
Astronomical Twilight 3:46 AM CDT 11:05 PM CDT
Moon 9:17 PM CDT (7/23) 7:12 AM CDT (7/23)
Length of Visible Light 16h 06m
Length of Day
14h 57m
Full, 99% of the Moon is Illuminated
Jul 23
Full
Jul 29
Last Quarter
Aug 6
New
Aug 14
First Quarter
Aug 20
Full

Hourly Weather History & Observations

Time (CDT) Temp. Dew Point Humidity Pressure Visibility Wind Dir Wind Speed Gust Speed Precip Events Conditions
12:53 AM 63.0 °F 55.0 °F 75% 29.90 in 10.0 mi NNW 6.9 mph - N/A   Clear
1:53 AM 62.1 °F 55.0 °F 78% 29.90 in 10.0 mi NNW 6.9 mph - N/A   Clear
2:53 AM 60.1 °F 55.0 °F 83% 29.91 in 10.0 mi NNW 5.8 mph - N/A   Clear
3:53 AM 59.0 °F 55.0 °F 87% 29.91 in 10.0 mi NNW 4.6 mph - N/A   Clear
4:53 AM 57.0 °F 54.0 °F 89% 29.94 in 10.0 mi WNW 4.6 mph - N/A   Clear
5:53 AM 55.9 °F 54.0 °F 93% 29.93 in 10.0 mi North 4.6 mph - N/A   Clear
6:53 AM 57.0 °F 55.0 °F 93% 29.99 in 10.0 mi WNW 6.9 mph - N/A   Clear
7:53 AM 60.1 °F 55.9 °F 86% 29.99 in 10.0 mi NW 5.8 mph - N/A   Clear
8:53 AM 66.0 °F 57.0 °F 73% 29.98 in 10.0 mi North 4.6 mph - N/A   Clear
9:53 AM 64.9 °F 55.9 °F 73% 29.99 in 10.0 mi NE 4.6 mph - N/A   Scattered Clouds
10:53 AM 66.0 °F 57.0 °F 73% 30.01 in 10.0 mi North 4.6 mph - N/A   Clear
11:53 AM 70.0 °F 54.0 °F 57% 30.02 in 10.0 mi North 6.9 mph - N/A   Clear
12:53 PM 73.9 °F 54.0 °F 50% 30.00 in 10.0 mi NNE 5.8 mph - N/A   Partly Cloudy
1:53 PM 75.9 °F 53.1 °F 45% 30.00 in 10.0 mi North 6.9 mph - N/A   Partly Cloudy
2:53 PM 77.0 °F 53.1 °F 43% 29.99 in 10.0 mi NNW 5.8 mph - N/A   Partly Cloudy
3:53 PM 78.1 °F 53.1 °F 42% 29.99 in 10.0 mi Variable 5.8 mph - N/A   Clear
4:53 PM 79.0 °F 53.1 °F 40% 29.99 in 10.0 mi Variable 4.6 mph - N/A   Scattered Clouds
5:53 PM 78.1 °F 53.1 °F 42% 29.98 in 10.0 mi NNE 8.1 mph - N/A   Mostly Cloudy
6:53 PM 75.0 °F 54.0 °F 48% 29.99 in 10.0 mi NNW 4.6 mph - N/A   Mostly Cloudy
7:53 PM 73.9 °F 55.9 °F 53% 29.99 in 10.0 mi Calm Calm - N/A   Clear
8:53 PM 71.1 °F 55.9 °F 59% 29.99 in 10.0 mi Calm Calm - N/A   Mostly Cloudy
9:53 PM 69.1 °F 55.0 °F 61% 30.01 in 10.0 mi Calm Calm - N/A   Mostly Cloudy
10:53 PM 64.9 °F 57.0 °F 75% 30.02 in 10.0 mi NNW 3.5 mph - N/A   Partly Cloudy
11:53 PM 63.0 °F 59.0 °F 87% 30.02 in 10.0 mi Calm Calm - N/A   Partly Cloudy